| time (UTC) | temp C | wind direction | speed KPH | gust KPH | rain 1hr cm | rain 24hr cm | rain mn cm | humidity % | barometer mb |
| 20260505051523 | 5 | 178 | 16.1 | 25.7 | 0.00 | 0.91 | 0.00 | 85 | 1006.7 |
| 20260505041555 | 6 | 190 | 19.3 | 33.8 | 0.00 | 0.91 | 0.00 | 83 | 1006.2 |
| 20260505040045 | 6 | 343 | 17.7 | 30.6 | 0.00 | 0.91 | 0.00 | 83 | 1006.1 |
| 20260505034541 | 6 | 184 | 20.9 | 37.0 | 0.00 | 0.91 | 0.00 | 82 | 1005.8 |
| 20260505033040 | 6 | 343 | 17.7 | 30.6 | 0.00 | 0.91 | 0.00 | 82 | 1005.7 |
| 20260505031546 | 6 | 161 | 20.9 | 37.0 | 0.00 | 0.91 | 0.00 | 83 | 1005.4 |
| 20260505030033 | 6 | 172 | 19.3 | 35.4 | 0.00 | 0.91 | 0.00 | 83 | 1005.2 |
| 20260505024535 | 6 | 343 | 19.3 | 33.8 | 0.03 | 0.91 | 0.91 | 83 | 1005.0 |
| 20260505023034 | 6 | 200 | 17.7 | 29.0 | 0.05 | 0.91 | 0.91 | 83 | 1004.9 |
| 20260505021528 | 6 | 168 | 20.9 | 40.2 | 0.05 | 0.91 | 0.91 | 81 | 1004.7 |
| 20260505020031 | 6 | 182 | 20.9 | 32.2 | 0.05 | 0.91 | 0.91 | 79 | 1004.5 |
| 20260505014529 | 7 | 190 | 20.9 | 37.0 | 0.03 | 0.89 | 0.89 | 76 | 1004.3 |
| 20260505013024 | 7 | 202 | 24.1 | 37.0 | 0.00 | 0.89 | 0.89 | 75 | 1004.0 |
| 20260505011530 | 7 | 343 | 22.5 | 32.2 | 0.00 | 0.89 | 0.89 | 76 | 1003.7 |
| 20260505010020 | 7 | 343 | 20.9 | 37.0 | 0.00 | 0.89 | 0.89 | 74 | 1003.6 |
| 20260505004539 | 7 | 180 | 19.3 | 30.6 | 0.00 | 0.97 | 0.89 | 72 | 1003.6 |
| 20260505003019 | 7 | 189 | 20.9 | 30.6 | 0.00 | 0.97 | 0.89 | 70 | 1003.7 |
| 20260505001520 | 7 | 343 | 24.1 | 40.2 | 0.00 | 0.97 | 0.89 | 69 | 1003.5 |
| 20260505000033 | 7 | 170 | 17.7 | 30.6 | 0.00 | 0.97 | 0.89 | 71 | 1003.4 |
| 20260504234513 | 7 | 343 | 17.7 | 27.4 | 0.00 | 1.02 | 0.89 | 71 | 1002.8 |
| 20260504233013 | 6 | 343 | 16.1 | 27.4 | 0.00 | 1.02 | 0.89 | 71 | 1002.8 |
| 20260504231510 | 6 | 151 | 11.3 | 17.7 | 0.00 | 1.02 | 0.89 | 71 | 1002.7 |
| 20260504230011 | 6 | 172 | 12.9 | 20.9 | 0.00 | 1.02 | 0.89 | 71 | 1002.8 |
| 20260504224510 | 6 | 198 | 16.1 | 30.6 | 0.00 | 1.37 | 0.89 | 70 | 1002.7 |
| 20260504223107 | 7 | 182 | 17.7 | 27.4 | 0.00 | 1.37 | 0.89 | 69 | 1002.6 |
| 20260504221510 | 7 | 185 | 16.1 | 24.1 | 0.00 | 1.37 | 0.89 | 68 | 1002.5 |
| 20260504220008 | 7 | 179 | 14.5 | 22.5 | 0.00 | 1.65 | 0.89 | 68 | 1002.3 |
| 20260504214504 | 8 | 176 | 16.1 | 27.4 | 0.00 | 1.65 | 0.89 | 67 | 1002.2 |
| 20260504213002 | 8 | 185 | 16.1 | 32.2 | 0.00 | 1.65 | 0.89 | 66 | 1001.9 |
| 20260504211614 | 8 | 343 | 22.5 | 37.0 | 0.00 | 1.65 | 0.89 | 66 | 1001.7 |
| 20260504210058 | 8 | 206 | 29.0 | 43.5 | 0.00 | 1.65 | 0.89 | 67 | 1001.5 |
| 20260504204600 | 8 | 191 | 20.9 | 38.6 | 0.00 | 2.01 | 0.89 | 72 | 1001.3 |
| 20260504203101 | 8 | 199 | 22.5 | 35.4 | 0.00 | 2.01 | 0.89 | 72 | 1001.1 |
| 20260504201551 | 8 | 173 | 22.5 | 37.0 | 0.00 | 2.01 | 0.89 | 73 | 1000.9 |
| 20260504200049 | 8 | 214 | 22.5 | 38.6 | 0.00 | 2.01 | 0.89 | 74 | 1000.8 |
| 20260504194548 | 7 | 211 | 14.5 | 30.6 | 0.00 | 2.24 | 0.89 | 77 | 1000.5 |
| 20260504193044 | 7 | 188 | 20.9 | 35.4 | 0.00 | 2.24 | 0.89 | 78 | 1000.2 |
| 20260504191543 | 7 | 219 | 19.3 | 35.4 | 0.00 | 2.24 | 0.89 | 78 | 1000.3 |
| 20260504190041 | 7 | 343 | 20.9 | 37.0 | 0.00 | 2.24 | 0.89 | 79 | 1000.1 |
| 20260504184639 | 7 | 195 | 17.7 | 32.2 | 0.00 | 2.24 | 0.89 | 82 | 999.9 |
| 20260504183037 | 7 | 343 | 20.9 | 33.8 | 0.00 | 2.24 | 0.89 | 81 | 999.9 |
| 20260504181534 | 6 | 214 | 9.7 | 40.2 | 0.00 | 2.24 | 0.89 | 83 | 999.7 |
| 20260504180036 | 6 | 245 | 29.0 | 43.5 | 0.00 | 2.24 | 0.89 | 85 | 999.7 |
| 20260504174532 | 5 | 221 | 16.1 | 30.6 | 0.00 | 2.24 | 0.89 | 86 | 999.8 |
| 20260504173031 | 5 | 237 | 19.3 | 25.7 | 0.00 | 2.24 | 0.89 | 87 | 999.4 |
| 20260504171531 | 5 | 208 | 14.5 | 27.4 | 0.00 | 2.24 | 0.89 | 87 | 999.2 |
| 20260504081550 | 3 | 252 | 16.1 | 24.1 | 0.13 | 1.73 | 0.36 | 93 | 978.1 |